COSMOS 886 DEB, 18518

Orbit data source: Space-Track

COSMOS 886 DEB, 18518 is space debris in LEO originally from a launch on Mon, 27 Dec 1976 UTC launched from the Tyuratam Missile And Space Complex (TTMTR). Debris objects in space refer to the collection of defunct objects orbiting the Earth. Examples of debris include non-operational satellites, rocket bodies, and fragments generated from explosions, collisions, or faulty payload assembly.

Loading next visibility...
Identifier
18518, 1976-126BW
Orbit
LEO
Country
Flag of CISCIS
Related business
Manufacturer
Unknown
Mission
Spacecraft
Bus & Motor
Unknown
Mass
Unknown
Launch date (UTC)
1976-12-27 (49 years ago)
Launch vehicle
Unknown
Launch site
Tyuratam Missile And Space Complex (TTMTR)
Object type
Payload
Rocket body
Debris
Shape & HBR
Unknown shape, 1.1 m
Radar Cross Section
Small (<0.1 m²)

Expand to show TLE details & history
Last TLE update: 23 hours ago

TLE from 23 hours ago
0 COSMOS 886 DEB
1 18518U 76126BW  26129.59607921 -.00000280  00000-0 -31511-3 0  9990
2 18518  65.7574 193.4049 0710102  69.5606  70.9593 12.81680016743710
Epoch: 2026-05-09T14:18Z
TLE epoch observation values (Epoch: 2026-05-09T14:18:21.243Z)
Latitude
28.5849°
Longitude
-82.72454°
Altitude
1,194.468 km
Speed
7.326 km/s
True Right ascension
23h 57m 06s
True Declination
28° 26' 56"
Sunlit
Object was in daylight at epoch
Visualization orbit readout
Latitude
Unknown
Longitude
Unknown
Altitude
Unknown
Speed
Unknown
Apparent Right ascension
Unknown
Apparent Declination
Unknown
Sunlit
N/A
Visualization observer readout
Local Sidereal Time
21:19:02
Azimuth
Unknown
Elevation
Unknown
Doppler factor
Unknown
Orbital elements
Apogee altitude
1,880.897 km
Perigee altitude
785.715 km
Semi-major axis
7,711.443 km
Eccentricity
0.07101
Inclination
65.7574°
RAAN
193.4049°
Arg. of periapsis
69.5606°
True anomaly
78.85521°
Mean anomaly
70.9593°
Eccentric anomaly
74.88717°
Mean motion
3.20509 °/min
Orbital period
112.32 mins
BSTAR
-0.00031511
Loading maneuver chart data...
Computing Atmospheric mass density...
Loading historical data...
Loading historical data...
Loading historical data...
Loading historical data...
Loading historical data...
Loading historical data...
Loading historical data...

Documentation

Showing up to 5 results
|